Simultaneous Nadir Overpasses (SNOs) Predictions

Prediction of SNOs between AQUA and METOP-B Satellite Orbit:

Table of predicted SNOs for the next 14.0 days since TLE Epoch: 7/20/2024
Index Date (AQUA) Time (AQUA) Lat,Lon (AQUA) SZA (AQUA ) Date (METOP-B) Time (METOP-B) Lat,Lon (METOP-B) SZA (METOP-B ) Distance(km) Time Diff (sec)
1 07/20/2024 14:15:19 -75.50, 145.12 125.06 07/20/2024 14:14:13 -75.44, 142.18 125.05 82.32 66
2 07/20/2024 15:04:51 75.98, -48.66 55.46 07/20/2024 15:04:41 76.00, -48.71 55.48 2.55 10
3 07/20/2024 15:54:14 -76.07, 118.72 124.44 07/20/2024 15:55:22 -76.04, 118.74 124.48 3.60 68
4 07/23/2024 05:36:17 75.98, 93.54 55.97 07/23/2024 05:35:06 75.96, 93.52 55.96 2.15 71
5 07/23/2024 06:25:39 -76.02, -98.92 123.98 07/23/2024 06:25:47 -76.00, -99.02 124.00 3.24 8
6 07/23/2024 07:15:10 76.44, 67.33 56.49 07/23/2024 07:16:17 76.45, 69.89 56.45 66.74 67
7 07/25/2024 20:57:02 -76.00, 43.34 123.44 07/25/2024 20:56:10 -75.99, 43.34 123.44 0.73 52
8 07/25/2024 21:46:25 76.05,-149.16 56.62 07/25/2024 21:46:49 76.03,-149.20 56.60 2.24 24
9 07/28/2024 12:17:47 76.02, -6.88 57.19 07/28/2024 12:17:13 76.00, -6.90 57.18 2.23 34
10 07/28/2024 13:07:09 -76.06, 160.68 122.77 07/28/2024 13:07:54 -76.05, 160.57 122.78 3.08 45
11 07/31/2024 03:38:30 -76.07, -57.15 122.13 07/31/2024 03:38:17 -76.06, -57.02 122.14 3.61 13
12 07/31/2024 04:27:52 76.08, 110.48 57.90 07/31/2024 04:28:56 76.09, 110.43 57.91 2.03 64
13 08/02/2024 18:09:48 -76.02, 85.22 121.51 08/02/2024 18:08:41 -76.01, 85.19 121.52 2.02 67
14 08/02/2024 18:59:11 76.08,-107.32 58.57 08/02/2024 18:59:19 76.08,-107.21 58.56 2.83 8



Historial Predications of SNOs between AQUA and METOP-B
